Home   Weather   Timișoara   Past weeks

Flag for Romania Past Weather in Timișoara, Romania — Yesterday and Last 2 Weeks

Now
52 °F

Clear.


Feels Like: 49 °F
Forecast: 55 / 74 °F
Wind: 7 mph from East

Location: Timisoara Airport

Current Time: May 1, 2017 at 5:36:43 am

Latest Report: May 1, 2017 at 5:00 am


Visibility: 10 mi

Pressure: 29.98 "Hg

Humidity: 88%

Dew Point: 48 °F

Location of TimișoaraLocation

Past Weather in Timișoara — Graph

°F

Timișoara Temperature Yesterday

Maximum temperature yesterday: 61 °F (at 3:30 pm)
Minimum temperature yesterday: 37 °F (at 5:30 am)
Average temperature yesterday: 49 °F

High & Low Weather Summary for the Past Weeks

 TemperatureHumidityPressure
High81 °F (Apr 27, 5:00 pm)100% (Apr 30, 11:00 am)30.24 "Hg (Apr 30, 11:00 am)
Low28 °F (Apr 18, 5:30 am)17% (Apr 26, 6:00 pm)29.71 "Hg (Apr 28, 5:30 pm)
Average50 °F66%29.98 "Hg
* Reported Apr 16 4:00 am — May 1 4:00 am, Timișoara, Weather by CustomWeather, © 2017

Note: Actual official high and low records may vary slightly from our data, if they occured in-between our weather recording intervals... More about our weather records

Advertising

Timișoara Weather History for the Previous 24 Hours

Scroll right to see more
 ConditionsComfort  
Time TempWeatherWind HumidityBarometerVisibility
4:00 am
Mon, May 1
52 °FClear.6 mph88%29.98 "Hg10 mi
3:30 am50 °FClear.7 mph94%29.98 "Hg10 mi
3:00 am50 °FClear.3 mph88%29.98 "Hg10 mi
2:30 am50 °FClear.3 mph88%29.98 "Hg10 mi
1:30 am46 °FClear.7 mph93%29.98 "Hg10 mi
1:00 am46 °FClear.7 mph93%30.01 "Hg10 mi
12:30 am48 °FClear.9 mph87%29.98 "Hg10 mi
12:00 am48 °FClear.10 mph87%29.98 "Hg10 mi
11:30 pm
Sun, Apr 30
48 °FClear.10 mph87%30.01 "Hg10 mi
11:00 pm50 °FClear.10 mph82%30.01 "Hg10 mi
10:30 pm48 °FClear.7 mph87%30.01 "Hg10 mi
10:00 pm48 °FClear.7 mph87%30.01 "Hg10 mi
9:30 pm50 °FClear.8 mph82%30.01 "Hg10 mi
9:00 pm52 °FClear.8 mph77%30.01 "Hg10 mi
8:30 pm55 °FSunny.8 mph67%30.01 "Hg10 mi
8:00 pm57 °FSunny.9 mph59%30.01 "Hg10 mi
7:30 pm59 °FSunny.9 mph55%30.01 "Hg10 mi
7:00 pm61 °FSunny.12 mph55%30.01 "Hg10 mi
6:30 pm59 °FPassing clouds.9 mph55%30.01 "HgN/A
6:00 pm61 °FScattered clouds.9 mph55%30.01 "HgN/A
5:30 pm59 °FScattered clouds.10 mph55%30.01 "HgN/A
5:00 pm61 °FScattered clouds.6 mph45%30.04 "HgN/A
4:30 pm59 °FScattered clouds.8 mph51%30.04 "HgN/A
4:00 pm61 °FScattered clouds.9 mph52%30.04 "HgN/A
3:30 pm61 °FScattered clouds.6 mph48%30.04 "HgN/A
3:00 pm59 °FScattered clouds.7 mph55%30.07 "HgN/A
2:30 pm59 °FScattered clouds.7 mph63%30.07 "HgN/A
2:00 pm59 °FScattered clouds.6 mph55%30.07 "HgN/A
1:30 pm57 °FPassing clouds.6 mph63%30.07 "HgN/A
1:00 pm55 °FPassing clouds.7 mph67%30.09 "HgN/A
12:30 pm54 °FPassing clouds.2 mph72%30.09 "HgN/A
12:00 pm52 °FScattered clouds.3 mph94%30.09 "HgN/A
11:30 am50 °FScattered clouds.2 mph94%30.09 "Hg4 mi
11:00 am46 °FFog.3 mph100%30.09 "Hg3 mi
10:30 am46 °FFog.3 mph93%30.09 "Hg2 mi
10:00 am45 °FFog.5 mph93%30.09 "Hg1 mi
9:30 am45 °FFog.2 mph93%30.07 "Hg1 mi
9:00 am43 °FFog.1 mph93%30.09 "Hg0 mi
8:30 am41 °FFog.No wind93%30.09 "Hg0 mi
8:00 am39 °FFog.No wind93%30.09 "Hg0 mi
7:30 am37 °FFog.No wind93%30.09 "Hg0 mi
7:00 am37 °FFog.2 mph93%30.07 "Hg0 mi
6:30 am37 °FFog.No wind93%30.07 "Hg0 mi
6:00 am37 °FFog.5 mph93%30.07 "Hg0 mi
5:30 am37 °FFog.2 mph93%30.07 "Hg0 mi
5:00 am41 °FFog.3 mph93%30.07 "Hg1 mi
Weather by CustomWeather, © 2017

See weather overviewHow to use our weather pages